Location: Unspecified
(0.0000°N, 0.0000°E)
Time: 12:57:05
(UTC+00:00)

Vanguard 2 Rocket - Pass Details

Date: 14 December 2018
Orbit: 556 x 3325 km, 32.9° (Epoch: 25 March)

Event Time Altitude Azimuth Distance (km) Brightness Sun altitude
Rises 12:14:43 0° 327° (NNW) 4,039 10.0 66.3°
Reaches altitude 10° 12:17:21 10° 336° (NNW) 3,380 9.7 66.1°
Maximum altitude 12:25:31 36° 41° (NE) 2,736 9.6 65.6°
Drops below altitude 10° 12:38:46 10° 101° (ESE) 5,495 10.9 64.4°
Sets 12:44:25 0° 108° (ESE) 6,872 11.3 63.8°
